Skip Page Navigation
NASA JPL Caltech
NASA Logo - Jet Propulsion Laboratory + View the NASA Portal
+ Center for Near-Earth Object Studies
JPL Home Earth Solar System Stars & Galaxies Technology
JPL Solar System Dynamics
BODIES ORBITS EPHEMERIDES TOOLS PHYSICAL DATA DISCOVERY FAQ SITE MAP
IMPORTANT: The SSD Announcement email list is now available. Major changes are coming in the near future, including possible hostname and/or URL changes. To be notified of such changes, subscribe to this email list.

Please visit this page for more details.


JPL Small-Body Database Browser
Search: [ help ]  
441528 (2008 SC243)
Classification: Main-belt Asteroid          SPK-ID: 2441528
Ephemeris | Orbit Diagram | Orbital Elements | Mission Design | Physical Parameters | Discovery Circumstances ]

[ show orbit diagram ]
Orbital Elements at Epoch 2458600.5 (2019-Apr-27.0) TDB
Reference: JPL 16 (heliocentric ecliptic J2000)
 Element Value Uncertainty (1-sigma)   Units 
e .2241783822582211 6.1303e-08  
a 2.354014667758925 1.3143e-08 au
q 1.826295467728605 1.4824e-07 au
i 2.056748491422038 6.7274e-06 deg
node 168.4054603493963 0.00014384 deg
peri 201.7995885414137 0.00014524 deg
M 342.4761288854254 1.6971e-05 deg
tp 2458664.715478543110
(2019-Jun-30.21547854)
6.2447e-05 TDB
period 1319.204650865792
3.61
1.1048e-05
3.025e-08
d
yr
n .2728917001344199 2.2855e-09 deg/d
Q 2.881733867789245 1.609e-08 au
  Orbit Determination Parameters
   # obs. used (total)      182  
   data-arc span      9109 days (24.94 yr)  
   first obs. used      1994-12-28  
   last obs. used      2019-12-06  
   planetary ephem.      DE431  
   SB-pert. ephem.      SB431-N16  
   condition code      0  
   norm. resid. RMS      .53704  
   source      ORB  
   producer      Otto Matic  
   solution date      2019-Dec-14 22:51:59  

Additional Information
 Earth MOID = .825254 au 
 Jupiter MOID = 2.57778 au 
 T_jup = 3.521 
[ show covariance matrix ]

Ephemeris | Orbit Diagram | Orbital Elements | Mission Design | Physical Parameters | Discovery Circumstances ]

Physical Parameter Table
Parameter Symbol Value Units Sigma Reference Notes
absolute magnitude H 17.7   n/a MPO450444  

441528 (2008 SC243)          Discovered 2008-Sep-29 by Spacewatch at Kitt Peak
Reference: Last Updated: 2015-09-02

Alternate Designations
 2008 SC243 = 1997 SE13 
Ephemeris | Orbit Diagram | Orbital Elements | Mission Design | Physical Parameters | Discovery Circumstances ]
ABOUT SSD CREDITS/AWARDS PRIVACY/COPYRIGHT GLOSSARY LINKS
FirstGov 2020-Jan-21 23:22 UT
(server date/time)  
NASA Home Page
Site Manager:   Ryan S. Park
Webmaster  Alan B. Chamberlin